Total_Precipitation_Accumulation
1.65 1.68 1.75 1.72 1.72 1.75 1.68 1.63 1.68 1.85 1.89 1.84 1.81 1.82 1.81 1.78 1.83 1.85 1.67 1.81 1.97 2.02 2.04 2.19 2.25 2.37 2.43 2.43 2.54 2.68 2.94 3.17 2.85 2.29 2.17 2.17 2.30 2.28 2.19 1.95 1.73 1.64 1.48
1.68 1.81 1.93 1.98 2.01 1.95 1.76 1.65 1.71 1.81 1.87 1.88 1.88 1.83 1.73 1.75 1.92 1.99 1.88 1.96 2.05 2.03 2.07 2.21 2.12 2.28 2.46 2.42 2.52 2.53 2.65 2.98 2.86 2.58 2.52 2.47 2.44 2.35 2.35 2.19 1.88 1.70 1.61
1.90 2.10 2.31 2.41 2.26 2.08 1.96 1.85 1.87 1.89 1.93 2.00 2.02 2.02 1.99 2.00 2.02 2.11 2.20 2.16 2.08 2.01 2.06 2.06 2.03 2.23 2.23 2.32 2.45 2.44 2.44 2.61 2.78 2.70 2.65 2.73 2.69 2.58 2.51 2.34 2.16 2.09 1.78
1.65 1.93 2.17 2.31 2.16 2.07 2.06 1.93 1.86 1.89 1.98 2.08 2.09 2.21 2.37 2.41 2.40 2.37 2.27 2.19 2.13 2.09 2.06 2.01 1.98 2.01 2.04 2.12 2.24 2.36 2.45 2.58 2.72 2.75 2.79 2.91 2.88 2.93 2.92 2.69 2.56 2.46 2.13
1.48 1.61 1.85 2.12 1.97 1.73 1.69 1.66 1.61 1.70 1.83 2.13 2.28 2.36 2.63 2.76 2.58 2.58 2.50 2.38 2.38 2.21 2.08 2.00 1.87 1.88 1.94 1.97 1.93 2.05 2.21 2.36 2.41 2.50 2.60 2.81 2.88 2.99 2.97 2.82 2.69 2.68 2.49
1.39 1.52 1.70 1.82 1.67 1.51 1.39 1.42 1.45 1.54 1.72 1.90 2.04 2.17 2.22 2.06 2.20 2.22 2.20 2.24 2.28 2.17 2.10 2.04 1.90 1.81 1.78 1.72 1.62 1.64 1.75 1.88 2.07 2.31 2.39 2.59 2.78 2.95 3.15 3.20 3.03 2.85 2.70
1.38 1.41 1.55 1.66 1.65 1.54 1.37 1.37 1.43 1.53 1.67 1.77 1.82 1.88 1.84 1.90 1.93 1.72 1.65 1.63 1.81 1.93 2.00 1.99 1.75 1.60 1.68 1.60 1.61 1.57 1.57 1.70 1.82 2.06 2.24 2.33 2.57 2.78 3.03 3.17 3.17 3.06 2.87
1.43 1.50 1.66 1.81 1.81 1.73 1.66 1.62 1.71 1.78 1.77 1.77 1.81 1.85 1.92 1.90 1.80 1.57 1.55 1.51 1.64 1.76 1.82 1.86 1.82 1.74 1.73 1.77 1.68 1.56 1.48 1.55 1.65 1.62 1.67 1.85 2.13 2.50 2.68 2.72 2.89 2.93 2.80
1.64 1.68 1.75 1.89 1.93 1.95 2.04 2.09 2.14 2.14 2.01 1.97 2.04 2.06 2.02 1.93 1.79 1.60 1.60 1.55 1.65 1.69 1.69 1.70 1.70 1.65 1.74 1.61 1.51 1.49 1.48 1.52 1.50 1.47 1.42 1.47 1.62 1.85 2.19 2.36 2.46 2.43 2.32
1.77 1.91 1.92 2.06 2.18 2.17 2.27 2.41 2.54 2.57 2.45 2.46 2.35 2.19 2.05 1.92 1.90 1.62 1.53 1.47 1.55 1.63 1.70 1.64 1.58 1.46 1.44 1.39 1.36 1.47 1.46 1.45 1.48 1.41 1.31 1.24 1.21 1.36 1.70 1.89 2.00 2.05 1.94
1.91 1.98 2.05 2.21 2.38 2.52 2.71 2.89 2.90 2.83 2.83 2.74 2.47 2.34 2.29 2.22 2.03 1.60 1.43 1.36 1.43 1.59 1.64 1.62 1.53 1.47 1.29 1.24 1.22 1.25 1.27 1.25 1.32 1.37 1.34 1.30 1.31 1.32 1.39 1.55 1.78 1.92 1.89
2.03 2.14 2.28 2.38 2.42 2.55 2.89 3.01 2.99 2.94 2.79 2.60 2.44 2.23 2.11 2.05 1.87 1.61 1.42 1.42 1.52 1.58 1.60 1.55 1.54 1.44 1.22 1.14 1.06 1.05 1.07 1.00 1.03 1.16 1.16 1.12 1.13 1.14 1.21 1.37 1.61 1.77 1.85
2.03 2.20 2.36 2.49 2.69 2.89 3.01 2.95 2.85 2.80 2.68 2.52 2.37 2.17 2.13 2.20 2.10 1.78 1.58 1.55 1.54 1.46 1.45 1.49 1.43 1.29 1.09 0.93 0.92 0.90 0.83 0.80 0.90 1.02 1.04 0.99 0.96 1.01 1.11 1.28 1.46 1.64 1.67
1.95 2.08 2.19 2.27 2.33 2.46 2.65 2.58 2.44 2.41 2.44 2.41 2.36 2.25 2.19 2.18 2.12 1.87 1.63 1.60 1.56 1.49 1.41 1.37 1.24 1.16 1.01 0.91 0.92 0.85 0.77 0.84 0.94 0.98 1.02 1.04 1.01 1.03 1.06 1.13 1.24 1.38 1.48
1.75 1.81 1.84 1.88 1.96 2.04 2.11 2.18 2.13 2.12 2.08 2.07 2.07 2.05 1.94 1.87 1.92 1.79 1.60 1.63 1.70 1.71 1.63 1.52 1.37 1.26 1.12 1.02 1.01 1.03 1.04 1.10 1.10 1.09 1.14 1.18 1.15 1.09 1.06 1.10 1.25 1.30 1.27
1.72 1.66 1.64 1.68 1.74 1.74 1.81 1.83 1.83 1.73 1.63 1.54 1.47 1.42 1.37 1.41 1.52 1.44 1.35 1.42 1.53 1.61 1.50 1.39 1.35 1.27 1.19 1.18 1.21 1.23 1.22 1.24 1.21 1.22 1.24 1.26 1.26 1.17 1.09 1.10 1.22 1.30 1.26
1.83 1.71 1.63 1.55 1.56 1.58 1.62 1.70 1.73 1.63 1.46 1.30 1.18 1.10 1.04 1.09 1.17 1.17 1.19 1.28 1.41 1.49 1.40 1.39 1.36 1.34 1.28 1.26 1.29 1.29 1.24 1.23 1.28 1.29 1.30 1.31 1.36 1.37 1.34 1.28 1.28 1.37 1.38
1.94 1.82 1.65 1.55 1.50 1.51 1.53 1.56 1.66 1.74 1.63 1.43 1.21 1.02 0.92 0.90 0.95 1.04 1.15 1.25 1.33 1.35 1.31 1.36 1.35 1.34 1.32 1.30 1.28 1.30 1.30 1.32 1.31 1.30 1.35 1.39 1.46 1.49 1.53 1.47 1.41 1.41 1.45
1.74 1.66 1.56 1.50 1.50 1.49 1.52 1.52 1.49 1.55 1.54 1.49 1.34 1.16 1.03 0.94 0.93 1.00 1.03 1.05 1.22 1.29 1.30 1.28 1.26 1.23 1.22 1.24 1.23 1.22 1.22 1.24 1.27 1.34 1.34 1.36 1.44 1.45 1.43 1.42 1.43 1.46 1.47
1.76 1.71 1.56 1.49 1.54 1.58 1.57 1.56 1.53 1.59 1.58 1.54 1.40 1.21 1.09 0.98 0.92 0.97 0.99 1.10 1.27 1.30 1.28 1.24 1.25 1.23 1.25 1.27 1.29 1.27 1.27 1.27 1.32 1.41 1.42 1.42 1.47 1.46 1.40 1.41 1.47 1.50 1.48
1.75 1.69 1.58 1.50 1.52 1.60 1.62 1.60 1.55 1.56 1.54 1.54 1.42 1.25 1.16 1.02 1.01 1.07 1.12 1.23 1.32 1.30 1.28 1.25 1.24 1.20 1.20 1.21 1.22 1.23 1.25 1.30 1.33 1.39 1.44 1.46 1.49 1.47 1.43 1.46 1.53 1.58 1.59
1.69 1.64 1.51 1.35 1.34 1.41 1.46 1.49 1.50 1.50 1.51 1.53 1.45 1.26 1.17 1.01 1.05 1.13 1.17 1.24 1.28 1.27 1.23 1.20 1.14 1.05 1.04 1.07 1.11 1.20 1.24 1.27 1.32 1.40 1.44 1.45 1.50 1.48 1.52 1.56 1.58 1.62 1.68
1.56 1.49 1.36 1.19 1.17 1.30 1.37 1.43 1.43 1.39 1.39 1.39 1.29 1.17 1.10 1.05 1.05 1.09 1.15 1.17 1.19 1.21 1.18 1.12 1.06 1.01 1.02 1.04 1.09 1.15 1.21 1.25 1.26 1.30 1.36 1.40 1.46 1.50 1.56 1.59 1.59 1.65 1.69
1.45 1.40 1.35 1.19 1.14 1.28 1.38 1.47 1.43 1.35 1.34 1.30 1.20 1.15 1.12 1.13 1.11 1.09 1.09 1.12 1.13 1.12 1.11 1.09 1.03 0.97 0.96 1.02 1.07 1.08 1.12 1.14 1.14 1.19 1.24 1.33 1.40 1.46 1.51 1.52 1.52 1.57 1.62
1.38 1.37 1.41 1.31 1.24 1.27 1.33 1.37 1.34 1.26 1.23 1.18 1.15 1.18 1.18 1.15 1.15 1.16 1.16 1.17 1.14 1.09 1.04 1.01 1.03 1.02 1.00 1.01 1.02 1.03 1.06 1.00 0.96 0.97 1.02 1.14 1.21 1.32 1.39 1.40 1.44 1.50 1.54
1.33 1.34 1.43 1.39 1.33 1.37 1.44 1.46 1.44 1.37 1.31 1.23 1.20 1.20 1.22 1.23 1.23 1.23 1.22 1.20 1.17 1.13 1.08 1.04 1.01 0.99 0.99 0.95 0.91 0.92 0.89 0.81 0.81 0.89 0.91 0.98 1.08 1.18 1.22 1.21 1.20 1.27 1.34